TimeEST,TemperatureF,Dew PointF,Humidity,Sea Level PressureIn,VisibilityMPH,Wind Direction,Wind SpeedMPH,Gust SpeedMPH,PrecipitationIn,Events,Conditions,WindDirDegrees,DateUTC
12:56 AM,28.0,19.0,69,30.02,10.0,NNW,4.6,-,N/A,,Clear,340,2012-11-08 05:56:00
2:56 AM,27.0,21.0,78,30.02,10.0,North,9.2,-,N/A,,Clear,360,2012-11-08 07:56:00
3:56 AM,26.1,21.0,81,30.04,10.0,North,5.8,-,N/A,,Clear,360,2012-11-08 08:56:00
4:56 AM,26.1,21.0,81,30.04,10.0,North,8.1,-,N/A,,Clear,350,2012-11-08 09:56:00
5:56 AM,25.0,21.0,85,30.05,10.0,NNW,6.9,-,N/A,,Clear,330,2012-11-08 10:56:00
6:56 AM,24.1,21.0,88,30.07,10.0,NNW,5.8,-,N/A,,Clear,330,2012-11-08 11:56:00
7:56 AM,26.1,21.9,84,30.09,10.0,NNW,8.1,-,N/A,,Clear,330,2012-11-08 12:56:00
8:56 AM,28.9,23.0,78,30.10,10.0,North,11.5,-,N/A,,Clear,350,2012-11-08 13:56:00
9:56 AM,32.0,21.0,64,30.12,10.0,NNW,12.7,-,N/A,,Clear,330,2012-11-08 14:56:00
10:56 AM,36.0,21.0,55,30.12,10.0,NNW,10.4,-,N/A,,Clear,330,2012-11-08 15:56:00
11:56 AM,39.9,19.9,45,30.09,10.0,WNW,11.5,-,N/A,,Clear,290,2012-11-08 16:56:00
12:56 PM,42.1,18.0,38,30.07,10.0,Variable,6.9,16.1,N/A,,Clear,0,2012-11-08 17:56:00
1:56 PM,43.0,19.0,38,30.06,10.0,West,12.7,-,N/A,,Clear,270,2012-11-08 18:56:00
2:56 PM,43.0,21.9,43,30.06,10.0,WNW,12.7,19.6,N/A,,Clear,300,2012-11-08 19:56:00
3:56 PM,43.0,21.0,42,30.07,10.0,WNW,15.0,19.6,N/A,,Clear,290,2012-11-08 20:56:00
4:56 PM,39.9,21.0,47,30.08,10.0,WNW,6.9,-,N/A,,Clear,300,2012-11-08 21:56:00
5:56 PM,37.0,21.9,54,30.11,10.0,WNW,6.9,-,N/A,,Clear,300,2012-11-08 22:56:00
6:56 PM,36.0,21.9,57,30.13,10.0,NW,9.2,-,N/A,,Clear,310,2012-11-08 23:56:00
7:56 PM,34.0,23.0,64,30.14,10.0,WNW,6.9,-,N/A,,Clear,300,2012-11-09 00:56:00
8:56 PM,33.1,24.1,70,30.15,10.0,NW,9.2,-,N/A,,Clear,320,2012-11-09 01:56:00
9:25 PM,32.0,24.8,75,30.09,10.0,WNW,4.6,-,N/A,,Mostly Cloudy,290,2012-11-09 02:25:00
9:56 PM,32.0,25.0,75,30.14,10.0,WNW,4.6,-,N/A,,Overcast,290,2012-11-09 02:56:00
10:56 PM,30.0,24.1,79,30.13,10.0,West,3.5,-,N/A,,Overcast,270,2012-11-09 03:56:00
11:56 PM,32.0,26.1,79,30.13,10.0,West,3.5,-,N/A,,Overcast,260,2012-11-09 04:56:00